Wind_Speed
83 84 84 78 76 73 70 67 62 62 60 57 56 54 52 54 53 54 56 56 53 49 52 54 57 59 58 57 54 52 52 54 57 56 56 59 56 60 62 67 69 69 69 70 73 77 75 79 80 84 83 87 93 90
90 88 88 81 76 74 72 70 66 64 62 59 57 60 60 57 56 57 62 61 61 57 56 56 56 62 60 61 62 62 61 62 60 62 64 63 64 67 68 67 75 74 80 79 85 83 85 86 88 90 97 99 99 102
94 91 91 87 82 79 76 74 72 70 68 66 63 62 63 62 61 61 62 64 67 64 61 62 64 70 69 65 64 68 69 74 70 71 72 73 75 77 79 77 77 77 85 87 90 88 90 91 95 100 103 105 104 107
102 97 94 93 89 86 82 79 77 75 74 73 70 69 68 69 70 69 69 71 72 71 70 65 68 71 73 74 73 73 73 77 79 82 82 79 79 80 81 85 87 91 95 100 93 93 97 99 104 106 108 108 110 113
108 103 98 96 95 91 86 85 82 81 80 80 79 79 77 75 76 78 79 79 80 82 78 76 73 76 81 83 83 82 81 83 86 86 85 85 86 93 86 84 86 96 102 104 102 101 105 100 107 114 114 116 119 124
110 109 106 100 96 93 92 89 85 85 85 85 84 81 82 82 84 87 86 83 86 88 90 84 83 82 84 87 90 93 92 91 95 95 92 92 95 101 97 88 91 106 108 110 110 111 112 113 115 118 123 126 128 130
114 114 110 108 103 98 98 95 91 87 87 85 85 86 86 86 89 90 89 85 89 93 96 94 89 86 87 93 97 101 104 104 105 104 101 104 105 110 106 99 110 117 117 117 120 122 122 123 126 128 131 132 134 139
115 112 113 113 111 105 100 99 100 97 95 92 90 90 92 92 93 93 92 91 93 97 99 101 92 89 92 97 101 104 107 109 110 109 105 107 106 112 108 112 114 116 121 121 123 126 131 133 134 138 138 138 137 136
128 124 120 120 115 113 109 106 104 104 102 100 99 97 97 96 97 97 100 101 103 104 106 105 103 104 105 105 107 109 107 107 112 110 108 116 108 111 116 117 117 120 122 126 127 130 129 130 129 130 129 126 124 120
130 128 124 124 123 119 117 113 109 108 107 107 108 108 108 106 105 103 102 106 109 108 111 115 114 116 112 111 109 112 111 112 114 106 111 114 113 121 124 127 129 126 127 128 127 124 126 127 123 116 114 116 111 112
134 132 127 125 123 121 119 118 118 115 115 112 112 113 115 113 113 114 115 113 114 115 113 113 115 118 117 114 117 119 120 125 126 120 127 126 124 130 132 131 130 125 120 120 122 123 117 110 104 103 99 97 97 99
126 124 124 129 131 125 124 124 122 124 121 119 118 117 117 119 120 122 122 121 118 117 116 118 117 118 120 123 125 126 128 133 135 133 131 133 136 135 131 128 122 121 121 119 115 109 105 102 98 94 90 88 87 88
122 123 126 124 124 126 125 127 127 124 125 127 128 128 128 128 126 120 120 122 126 128 127 126 126 124 125 128 134 136 135 131 128 126 128 128 133 127 120 118 118 113 107 101 97 98 97 92 89 89 87 86 85 85
112 113 117 120 123 124 124 125 124 128 127 126 125 126 127 126 125 127 130 132 134 131 132 132 132 133 137 137 132 130 130 131 132 131 128 133 127 115 114 111 108 102 97 95 93 90 87 84 85 84 84 85 85 84
95 104 113 115 116 118 123 125 127 127 131 134 135 131 126 128 133 136 140 140 135 134 134 133 130 125 126 126 126 125 123 120 120 121 122 121 115 111 109 104 99 93 93 90 90 88 85 84 84 84 84 83 81 81
86 91 96 99 101 103 106 110 115 120 125 132 131 130 134 137 139 138 128 126 129 127 123 122 120 117 117 117 115 114 115 111 115 112 107 106 103 102 103 103 99 94 92 90 88 87 87 85 83 82 80 79 78 76
83 85 87 89 92 95 97 99 102 103 104 103 106 111 113 115 117 117 114 113 114 116 116 114 111 112 108 103 106 107 109 106 104 103 101 100 99 97 100 100 95 91 89 89 88 86 85 84 81 79 77 75 74 72
82 84 85 87 89 90 91 93 94 94 93 94 97 100 103 104 104 105 105 104 105 104 104 102 100 100 101 103 104 104 103 99 98 97 94 96 97 97 96 92 89 88 87 86 85 83 81 79 77 75 72 70 69 68
75 79 81 83 85 86 87 87 87 88 89 91 93 97 98 98 100 100 100 100 97 95 95 95 96 98 101 101 100 96 94 91 87 84 83 86 88 87 89 88 84 81 79 77 77 76 74 72 70 67 66 64 63 61
66 68 71 73 74 76 77 79 81 81 81 85 88 87 87 90 91 92 91 89 88 87 86 86 89 88 89 84 85 82 79 80 81 79 77 82 82 80 77 74 72 72 71 70 69 68 66 66 64 63 60 58 57 55
58 60 62 63 65 66 67 69 70 71 73 74 77 77 76 79 81 81 79 76 72 72 77 80 76 75 75 72 74 74 72 74 71 70 67 71 75 67 66 67 66 66 65 65 64 63 61 59 59 57 55 52 52 51
55 56 56 56 57 58 59 61 63 65 65 67 70 68 67 69 69 68 65 64 65 72 74 68 64 65 64 65 66 67 65 61 61 63 61 61 64 65 64 62 62 60 58 58 57 57 56 55 53 51 50 48 48 47
47 48 47 48 49 50 54 57 58 61 58 59 59 57 58 58 58 58 54 60 64 69 61 56 57 58 58 61 61 61 58 57 60 60 58 57 56 56 56 56 55 55 55 55 54 52 50 48 47 46 45 45 45 45
41 40 41 42 45 49 55 56 55 53 49 49 51 51 54 54 53 52 54 61 61 56 53 53 54 56 57 55 55 55 54 54 55 54 52 52 52 52 51 51 50 50 50 48 47 46 45 44 43 43 43 43 43 44
33 34 39 45 47 51 51 50 47 45 43 41 44 49 51 48 48 50 56 51 48 49 48 48 49 49 50 50 48 47 46 46 47 47 46 46 47 47 48 47 45 45 44 44 43 42 42 41 41 41 41 41 42 42
35 42 46 48 46 41 40 38 38 39 39 41 46 46 46 46 46 49 46 43 47 45 44 44 45 44 44 43 43 40 40 41 42 42 41 40 41 42 41 40 39 40 40 40 40 40 39 39 39 40 40 41 42 42
42 43 38 34 31 29 30 37 40 43 44 42 38 38 39 41 41 40 40 41 42 42 41 40 39 39 38 38 39 39 38 38 38 38 38 37 38 38 37 36 36 37 37 37 38 39 39 39 40 40 41 41 41 41
33 30 29 27 30 36 37 37 37 37 36 34 36 36 37 35 37 38 39 37 37 37 37 38 38 38 38 39 38 38 37 36 36 36 36 36 36 35 35 35 36 36 36 37 38 38 38 39 39 40 40 41 41 41
29 27 31 32 33 33 31 30 31 32 35 36 35 34 34 33 36 36 35 36 36 36 36 36 37 37 37 37 37 37 36 35 35 34 34 35 35 34 34 35 36 36 37 37 37 38 38 38 39 40 40 41 41 41
27 29 28 28 29 28 27 31 29 29 30 30 31 32 31 30 32 32 33 33 35 35 33 33 33 34 35 34 34 35 35 35 34 33 33 33 34 34 34 34 35 36 36 37 37 37 38 39 40 40 40 40 40 40
23 24 25 26 28 29 29 27 26 27 29 29 29 29 28 30 29 29 30 32 33 32 31 32 33 33 33 33 33 34 34 34 34 33 33 33 33 34 34 35 35 36 37 38 39 39 38 38 38 38 39 39 40 41
23 24 24 23 23 25 25 25 24 24 24 26 27 27 26 28 29 28 29 31 30 29 30 31 32 32 32 33 33 33 33 33 32 32 33 33 34 35 36 37 37 38 38 38 37 38 38 37 38 39 39 39 38 37
20 20 21 22 23 23 24 24 23 24 24 26 27 26 27 28 28 26 28 29 29 29 29 29 29 31 32 33 33 34 34 34 34 34 34 34 35 35 36 36 36 36 36 37 37 37 38 37 37 36 36 36 36 36
Wind_Direction
222 222 223 226 229 233 233 235 237 239 242 244 246 248 253 258 257 258 257 259 262 264 273 273 273 273 276 275 277 275 279 281 278 279 282 282 285 284 287 286 287 288 285 284 286 290 292 293 292 291 292 299 301 302
223 225 223 225 228 231 234 236 237 239 242 244 247 248 249 254 257 260 263 265 265 264 265 267 271 274 277 278 277 281 280 280 283 282 284 284 285 288 289 292 291 292 289 290 291 293 295 297 299 299 298 300 301 302
223 225 226 224 226 229 233 234 236 239 241 245 247 250 252 252 254 258 260 264 264 265 265 268 270 272 278 276 279 279 280 280 282 283 285 287 289 286 290 291 290 290 290 291 288 289 293 297 296 297 299 300 300 300
223 226 227 227 227 228 231 234 237 239 241 244 248 250 253 255 256 256 258 261 263 263 263 265 267 274 277 280 280 279 278 279 280 281 286 289 289 289 290 291 293 293 291 289 291 292 293 295 295 296 297 298 297 299
225 226 229 230 230 230 232 236 238 239 241 245 247 247 249 253 256 258 259 261 264 265 264 263 264 271 272 275 279 281 281 281 283 284 287 289 291 289 291 293 296 292 289 291 294 292 292 293 294 296 297 297 298 299
232 230 230 232 233 234 235 235 239 241 244 248 248 251 252 254 257 259 258 261 264 266 267 267 267 267 273 277 278 278 280 281 283 284 287 290 290 289 292 293 291 286 289 291 292 291 292 293 292 292 294 295 296 296
232 234 235 233 235 236 237 236 238 241 244 247 250 251 251 255 259 261 262 262 265 268 270 269 269 269 271 273 276 279 281 282 282 284 286 287 287 287 290 293 285 290 289 290 292 293 293 294 295 295 295 295 296 296
231 235 237 238 238 239 238 238 240 243 244 246 248 250 253 254 257 260 263 264 265 267 268 270 272 273 273 272 272 274 276 278 280 281 284 285 287 288 291 288 290 291 292 293 294 295 296 295 294 293 294 295 295 297
237 238 240 240 239 240 240 241 244 245 246 248 250 250 252 254 259 262 262 263 266 265 267 270 274 276 277 275 274 277 282 281 280 282 286 285 288 291 290 290 292 291 292 292 290 293 297 297 297 298 299 300 300 300
239 241 242 241 241 240 242 243 245 246 248 250 250 252 254 255 258 260 263 266 266 266 269 272 272 276 276 277 279 284 283 286 290 289 288 290 292 292 291 293 293 294 296 293 292 294 296 297 297 299 301 301 301 300
239 240 241 242 243 244 243 245 245 246 246 249 251 253 254 254 256 259 264 267 269 270 271 272 273 274 278 281 283 285 286 287 288 289 288 290 292 291 290 292 295 296 297 296 297 298 298 299 302 302 300 300 300 300
238 240 241 242 244 245 246 245 246 247 249 250 251 254 256 258 260 261 264 268 271 271 270 272 275 277 279 280 282 283 285 287 288 287 288 290 290 289 292 294 296 296 296 297 298 300 302 302 301 300 301 301 300 300
241 243 243 245 247 248 249 248 248 251 254 256 256 255 256 260 261 265 269 270 270 270 272 274 275 276 276 278 280 281 284 285 287 290 290 289 287 289 293 295 295 296 296 297 299 301 300 299 299 298 299 299 300 301
240 243 244 247 248 249 250 252 253 256 257 257 258 260 260 262 264 267 268 269 271 271 272 273 274 276 276 278 279 281 282 284 287 288 288 286 289 293 295 295 296 298 301 302 301 299 297 297 297 298 298 298 298 300
239 241 244 247 248 250 251 252 254 256 256 257 259 261 262 264 267 267 268 270 271 270 271 274 273 274 275 277 278 281 283 285 284 283 284 288 292 293 293 294 297 300 300 299 297 296 296 297 297 298 298 299 301 302
238 240 241 243 246 247 249 250 252 253 255 256 258 260 262 261 263 263 265 266 268 271 272 272 272 273 275 277 278 281 281 281 280 283 286 287 291 292 294 296 297 298 297 295 294 295 297 299 299 299 300 300 302 303
241 242 243 244 245 246 247 249 250 252 253 256 257 259 259 261 262 264 266 269 270 270 272 273 275 276 277 278 279 278 278 280 282 284 287 290 290 291 290 290 292 292 293 293 295 297 299 299 300 300 300 301 303 303
241 244 245 247 248 249 250 251 253 254 256 257 258 259 261 262 264 266 267 268 269 269 271 273 273 275 277 278 276 276 278 281 283 284 285 287 287 287 287 287 289 291 293 295 297 297 298 298 298 299 300 301 301 302
242 244 245 247 249 251 252 254 255 256 257 258 259 260 261 263 265 265 266 268 268 268 269 270 273 273 274 276 277 280 282 282 280 280 282 282 281 282 283 287 290 293 295 295 294 295 295 297 297 298 298 299 301 302
241 243 245 246 248 250 252 253 254 256 257 258 259 259 260 261 262 262 263 264 267 270 273 274 272 274 274 276 278 279 279 279 279 279 280 280 282 283 287 291 294 294 294 293 293 294 294 295 296 297 298 299 300 301
245 246 248 249 251 252 254 255 257 258 257 258 259 259 258 258 259 262 265 269 273 274 272 271 271 273 276 277 277 278 279 278 280 283 282 282 284 290 291 291 290 290 290 290 291 291 293 295 295 297 298 299 299 301
243 244 246 248 250 252 255 255 255 255 255 254 255 256 259 261 263 266 269 272 272 269 268 270 274 274 276 279 279 279 280 284 286 284 286 287 288 290 289 288 287 287 289 289 290 292 293 295 297 298 299 299 301 302
244 245 247 248 250 252 253 252 251 253 254 256 259 262 264 266 267 268 270 269 267 266 272 277 278 280 280 279 281 282 283 284 283 284 285 284 283 284 284 285 287 288 290 291 292 293 295 296 297 298 299 300 301 302
247 248 250 250 247 247 249 253 255 257 262 263 265 266 265 265 268 269 267 264 267 277 281 281 280 280 279 278 279 280 282 281 281 282 283 283 284 285 286 288 289 290 290 291 292 293 294 295 296 298 298 300 301 302
249 248 247 246 247 248 251 256 261 265 265 267 266 264 267 268 267 267 267 276 282 281 280 278 276 276 278 280 282 282 283 284 285 287 289 290 291 291 291 290 291 290 290 291 292 293 293 295 297 298 299 300 301 302
240 241 244 248 253 258 264 269 270 271 269 261 258 259 263 267 269 270 279 281 279 279 280 279 280 281 283 285 285 286 287 286 286 286 287 289 292 292 291 291 291 290 290 292 293 294 296 297 297 298 299 300 301 302
242 246 256 263 268 270 262 256 253 255 260 267 274 275 274 272 273 276 276 273 276 278 279 281 283 284 283 283 283 284 284 284 284 285 287 290 290 289 290 291 291 292 293 293 294 294 295 296 297 298 299 300 300 301
257 262 263 261 255 253 254 258 264 269 275 276 269 266 269 273 273 273 274 277 278 279 281 281 283 284 285 286 287 288 289 288 288 289 289 288 289 289 290 291 292 292 293 292 293 293 294 296 297 298 299 300 301 303
252 253 251 252 256 260 265 266 264 263 263 266 271 273 275 276 278 279 280 280 281 281 281 283 284 286 286 287 289 288 287 286 287 287 287 286 286 288 289 291 292 292 292 292 294 295 296 296 297 298 299 300 301 302
254 256 260 261 261 262 263 262 263 267 270 271 270 271 273 274 274 277 278 277 276 278 281 282 282 281 282 282 284 286 287 288 288 288 288 289 290 291 292 292 292 292 293 294 294 295 295 297 298 299 300 300 302 304
256 259 259 260 261 262 262 264 267 266 267 270 272 271 268 269 271 271 272 274 275 278 281 280 280 281 282 283 284 285 286 287 287 288 289 291 292 293 294 294 293 294 295 295 295 296 296 297 298 299 300 302 303 303
251 252 254 253 255 257 261 261 261 264 266 265 265 267 270 271 271 270 270 273 276 277 278 281 283 284 284 284 284 285 286 288 289 292 293 294 295 295 295 295 295 295 296 296 296 297 298 300 301 302 302 303 302 303
251 254 257 258 258 260 264 267 268 267 267 267 268 270 270 272 274 275 273 276 278 279 281 283 283 283 284 286 288 290 292 293 294 295 295 295 295 294 294 294 294 294 295 296 297 299 299 300 300 301 302 302 303 304
Height
10470 10478 10489 10498 10508 10517 10527 10535 10542 10549 10555 10560 10565 10568 10572 10575 10577 10580 10582 10584 10586 10591 10588 10588 10589 10586 10586 10587 10589 10588 10588 10585 10582 10582 10583 10580 10582 10578 10574 10566 10558 10553 10547 10544 10539 10527 10528 10519 10514 10502 10495 10492 10472 10468
10454 10463 10473 10483 10493 10503 10512 10520 10528 10534 10541 10546 10551 10555 10559 10561 10564 10567 10568 10569 10574 10577 10578 10577 10578 10568 10573 10572 10571 10573 10573 10568 10568 10567 10565 10566 10564 10562 10558 10560 10543 10539 10525 10525 10510 10512 10502 10498 10488 10481 10464 10462 10455 10440
10438 10448 10458 10468 10479 10489 10498 10505 10514 10520 10526 10532 10537 10540 10544 10547 10550 10552 10553 10553 10556 10561 10565 10566 10560 10554 10557 10555 10557 10557 10556 10549 10551 10548 10547 10548 10546 10542 10539 10542 10532 10527 10510 10504 10493 10496 10485 10479 10467 10455 10448 10436 10428 10416
10423 10432 10442 10453 10464 10473 10482 10491 10499 10505 10511 10517 10521 10525 10528 10530 10533 10535 10537 10535 10538 10542 10548 10556 10548 10541 10538 10538 10537 10539 10538 10533 10531 10525 10526 10528 10523 10524 10526 10519 10513 10499 10485 10469 10483 10480 10472 10461 10442 10432 10425 10414 10402 10392
10405 10416 10425 10436 10447 10457 10468 10476 10484 10489 10494 10500 10505 10508 10511 10513 10514 10516 10518 10521 10521 10519 10530 10535 10539 10533 10524 10523 10518 10517 10516 10513 10509 10509 10509 10509 10503 10487 10504 10508 10501 10471 10454 10449 10454 10455 10441 10450 10428 10407 10399 10389 10380 10365
10387 10399 10409 10420 10432 10443 10452 10460 10466 10472 10478 10484 10488 10493 10496 10497 10495 10495 10500 10511 10506 10501 10499 10515 10522 10524 10516 10507 10500 10492 10490 10491 10485 10486 10492 10493 10481 10462 10475 10492 10479 10437 10436 10433 10429 10424 10420 10413 10408 10395 10378 10367 10354 10339
10369 10380 10392 10401 10414 10426 10435 10442 10450 10455 10461 10466 10471 10474 10477 10477 10476 10474 10482 10494 10488 10481 10473 10483 10498 10510 10503 10493 10483 10475 10467 10465 10462 10465 10473 10469 10461 10441 10447 10458 10434 10416 10409 10407 10397 10387 10385 10378 10367 10359 10345 10335 10324 10308
10351 10362 10372 10383 10395 10406 10417 10424 10432 10437 10442 10448 10452 10455 10456 10457 10456 10459 10463 10469 10468 10461 10455 10451 10475 10483 10481 10472 10463 10459 10454 10447 10446 10445 10454 10441 10440 10425 10431 10413 10407 10401 10382 10374 10365 10354 10344 10341 10335 10322 10312 10300 10294 10277
10330 10341 10352 10364 10373 10385 10395 10403 10410 10416 10422 10427 10431 10433 10435 10437 10439 10441 10440 10442 10442 10440 10435 10438 10448 10449 10450 10444 10437 10431 10426 10426 10425 10434 10427 10402 10421 10410 10395 10387 10383 10372 10362 10353 10346 10330 10318 10306 10297 10288 10276 10267 10256 10245
10308 10320 10331 10341 10352 10362 10373 10381 10389 10395 10400 10405 10408 10410 10413 10418 10419 10419 10415 10415 10416 10420 10415 10417 10421 10416 10413 10411 10410 10405 10400 10400 10395 10408 10393 10388 10394 10379 10362 10360 10351 10347 10340 10327 10319 10309 10293 10284 10271 10262 10251 10239 10227 10216
10288 10298 10307 10318 10328 10338 10348 10357 10366 10372 10378 10382 10386 10387 10392 10395 10395 10395 10392 10397 10396 10395 10394 10392 10388 10385 10385 10383 10381 10375 10370 10366 10364 10377 10361 10358 10360 10343 10331 10330 10323 10315 10306 10292 10283 10273 10262 10253 10245 10235 10226 10215 10203 10191
10264 10274 10285 10295 10303 10313 10323 10330 10340 10347 10353 10358 10362 10365 10368 10370 10371 10370 10377 10376 10371 10362 10363 10360 10363 10363 10360 10355 10351 10348 10344 10335 10335 10335 10331 10329 10315 10302 10303 10299 10291 10284 10273 10262 10250 10243 10235 10224 10215 10207 10198 10191 10180 10169
10241 10252 10264 10270 10281 10289 10297 10305 10313 10320 10325 10330 10338 10341 10344 10343 10344 10350 10350 10342 10334 10332 10334 10337 10339 10339 10336 10330 10326 10322 10314 10306 10302 10300 10299 10293 10267 10273 10276 10273 10264 10249 10243 10238 10230 10219 10210 10203 10194 10185 10176 10166 10158 10148
10221 10230 10240 10248 10256 10263 10272 10278 10284 10291 10296 10302 10306 10311 10314 10319 10326 10322 10311 10306 10306 10307 10310 10310 10311 10313 10308 10300 10295 10292 10289 10287 10278 10269 10264 10241 10240 10247 10246 10238 10229 10221 10213 10208 10201 10195 10188 10179 10170 10162 10154 10143 10134 10127
10200 10208 10217 10224 10232 10240 10248 10254 10258 10263 10269 10273 10275 10281 10292 10296 10287 10282 10277 10275 10274 10276 10281 10283 10281 10280 10278 10274 10267 10263 10261 10264 10259 10243 10230 10222 10218 10219 10212 10207 10201 10197 10193 10187 10176 10169 10161 10154 10146 10138 10130 10121 10112 10104
10181 10189 10195 10202 10209 10216 10221 10226 10231 10233 10238 10244 10251 10259 10263 10258 10252 10247 10245 10247 10248 10249 10250 10248 10246 10248 10248 10245 10245 10243 10231 10229 10216 10209 10213 10207 10201 10195 10186 10176 10171 10171 10166 10160 10154 10146 10137 10130 10123 10115 10107 10099 10092 10085
10160 10167 10175 10181 10186 10190 10196 10200 10204 10207 10211 10222 10228 10225 10222 10220 10216 10216 10221 10221 10223 10220 10219 10216 10216 10217 10216 10220 10216 10210 10197 10197 10195 10192 10189 10182 10175 10172 10162 10152 10149 10146 10142 10136 10130 10122 10115 10106 10099 10092 10085 10079 10072 10065
10140 10146 10152 10156 10161 10167 10172 10175 10178 10184 10192 10197 10199 10196 10191 10191 10191 10191 10191 10193 10194 10192 10190 10190 10191 10191 10189 10186 10179 10177 10175 10178 10174 10170 10168 10158 10148 10140 10132 10130 10128 10123 10120 10115 10108 10099 10092 10085 10079 10072 10067 10061 10053 10046
10120 10124 10128 10134 10139 10143 10148 10151 10156 10162 10166 10168 10169 10166 10164 10168 10166 10164 10163 10160 10163 10163 10163 10168 10167 10166 10158 10152 10150 10156 10153 10148 10145 10144 10143 10132 10122 10118 10111 10109 10107 10103 10099 10093 10086 10079 10073 10066 10060 10055 10049 10043 10037 10030
10100 10105 10110 10113 10117 10121 10124 10130 10130 10135 10141 10140 10139 10141 10143 10140 10137 10134 10134 10136 10137 10141 10145 10145 10139 10136 10132 10137 10130 10128 10126 10121 10116 10117 10117 10106 10099 10094 10093 10090 10087 10082 10077 10070 10064 10059 10053 10047 10042 10037 10032 10027 10021 10015
10082 10085 10090 10094 10098 10101 10105 10109 10111 10112 10114 10116 10113 10113 10116 10113 10112 10112 10115 10119 10128 10128 10116 10109 10114 10116 10113 10112 10106 10103 10103 10095 10095 10092 10093 10087 10074 10077 10076 10070 10066 10061 10057 10051 10046 10041 10037 10032 10027 10022 10017 10012 10006 10001
10066 10070 10074 10078 10081 10084 10088 10089 10089 10088 10091 10090 10087 10092 10096 10096 10096 10099 10105 10107 10104 10090 10083 10094 10099 10095 10095 10091 10085 10079 10077 10079 10076 10070 10068 10068 10062 10056 10053 10050 10047 10043 10039 10034 10030 10026 10021 10017 10012 10007 10002 9998 9992 9988
10054 10057 10061 10065 10067 10070 10068 10067 10069 10067 10072 10073 10075 10079 10080 10082 10084 10085 10089 10080 10073 10060 10072 10082 10080 10076 10074 10068 10065 10062 10060 10062 10054 10051 10050 10048 10044 10040 10036 10033 10031 10027 10023 10018 10014 10010 10007 10002 9998 9994 9989 9984 9980 9975
10044 10047 10050 10051 10050 10051 10047 10048 10050 10053 10061 10064 10064 10065 10063 10065 10067 10068 10065 10054 10049 10059 10064 10063 10060 10057 10052 10051 10049 10046 10046 10043 10040 10037 10036 10032 10029 10026 10023 10019 10016 10012 10007 10003 10000 9997 9993 9989 9985 9981 9977 9972 9967 9962
10036 10037 10036 10032 10032 10032 10033 10037 10041 10046 10050 10052 10051 10046 10044 10048 10050 10048 10040 10041 10049 10047 10046 10044 10041 10039 10037 10034 10034 10033 10032 10029 10026 10022 10021 10017 10015 10012 10009 10006 10002 9998 9994 9990 9987 9984 9979 9976 9973 9969 9965 9960 9955 9950
10021 10018 10015 10015 10020 10028 10031 10034 10034 10034 10034 10034 10030 10030 10032 10035 10035 10031 10032 10036 10030 10030 10030 10028 10026 10025 10024 10022 10020 10020 10018 10015 10012 10009 10006 10003 10000 9998 9995 9991 9988 9985 9981 9978 9975 9971 9968 9964 9960 9956 9952 9947 9943 9938
10005 10005 10010 10017 10020 10022 10022 10018 10017 10016 10016 10019 10023 10025 10023 10022 10022 10023 10022 10020 10018 10018 10016 10015 10014 10013 10012 10010 10007 10005 10004 10001 9998 9995 9992 9989 9986 9983 9981 9978 9975 9972 9969 9966 9963 9959 9956 9952 9948 9944 9940 9936 9932 9927
10002 10006 10007 10009 10008 10006 10007 10009 10011 10012 10014 10014 10012 10011 10010 10012 10012 10011 10009 10010 10008 10007 10005 10004 10002 10000 9998 9996 9994 9992 9989 9987 9985 9982 9979 9977 9974 9972 9969 9967 9964 9961 9958 9955 9952 9948 9945 9940 9936 9932 9928 9924 9920 9916
9996 9998 9997 9997 9998 9998 10000 10002 10001 10002 10001 10000 10001 10001 10000 10001 9999 9999 9999 9997 9996 9994 9993 9992 9989 9987 9986 9983 9981 9979 9977 9974 9972 9970 9967 9964 9962 9960 9958 9955 9952 9949 9946 9943 9940 9936 9932 9929 9925 9921 9917 9912 9908 9904
9988 9987 9988 9989 9989 9990 9992 9990 9991 9992 9992 9992 9991 9991 9991 9991 9989 9989 9988 9986 9984 9982 9981 9980 9978 9975 9973 9971 9969 9966 9964 9962 9960 9958 9956 9953 9950 9948 9946 9943 9941 9938 9934 9931 9928 9925 9922 9918 9914 9909 9905 9901 9897 9893
9981 9981 9982 9982 9982 9981 9981 9982 9983 9983 9983 9983 9982 9982 9981 9979 9979 9979 9977 9975 9973 9972 9971 9969 9966 9965 9962 9960 9958 9956 9954 9951 9949 9947 9945 9942 9939 9937 9935 9932 9929 9926 9923 9920 9917 9914 9910 9907 9903 9899 9895 9890 9886 9882
9973 9973 9973 9974 9974 9974 9974 9974 9974 9974 9974 9974 9973 9972 9972 9970 9970 9970 9966 9963 9963 9962 9960 9958 9956 9954 9952 9950 9948 9946 9943 9941 9939 9936 9933 9931 9929 9927 9924 9921 9918 9915 9912 9909 9906 9902 9899 9895 9892 9888 9884 9879 9875 9871
9966 9967 9966 9966 9966 9966 9966 9966 9966 9966 9965 9964 9964 9963 9962 9960 9959 9959 9956 9954 9952 9950 9949 9948 9946 9944 9942 9940 9937 9935 9933 9930 9927 9925 9923 9921 9918 9916 9913 9910 9908 9905 9902 9899 9895 9892 9888 9884 9881 9877 9873 9869 9864 9860